{"data":{"norad_id":68434,"epoch":"2026-09-20T04:30:54.667008Z","epoch_age_seconds":95771,"freshness":"FRESH","line1":"1 68434U 26067U   26263.18813272  .00001969  00000+0  97032-4 0  9996","line2":"2 68434  97.4699 220.5532 0002501  51.2432 308.9026 15.19113503 26369","mean_motion":15.19113503,"eccentricity":0.0002501,"inclination_deg":97.4699,"raan_deg":220.5532,"arg_perigee_deg":51.2432,"mean_anomaly_deg":308.9026,"bstar":9.7032e-5,"rev_number":2636,"period_min":94.792126931677,"perigee_km":506.79615287883,"apogee_km":510.24085796264,"semimajor_km":6886.6555054207,"source":"CELESTRAK","updated_at":"2026-09-20T09:00:24.203505Z"}}